Voltar ao catálogo

STARLINK-2707

AtivoComunicaçõesVLEO
NORAD 48669·PAYLOAD·🇺🇸 United States

Lançado May 26, 2021 de Cape Canaveral Space Force Station

Loading…

Próximas Passagens (próximas 24 horas)

TLE

AtualizadoSource: CelesTrak SupGP

Época: Sep 14, 2026, 21:30 UTC

1 48669C 21044AH  26257.89631944  .00010604  00000+0  34095-3 0  2571
2 48669  53.1598 303.5579 0001214  80.0325 137.0598 15.31701070    13

Acompanhe STARLINK-2707 em tempo real com AllMySat

Download on the App Store